Location: Lafig�re
(44.4503°N, 4.0357°E)
Time: 17:37:56
(UTC+00:00)

deb Explorer IX - Pass Details

Date: 30 January 2021
Orbit: 537 x 1102 km, 38.8° (Epoch: 04 March)

Event Time Altitude Azimuth Distance (km) Brightness Sun altitude
Rises 15:42:02 0° 244° (WSW) 3,900 ? 9.7°
Reaches altitude 10° 15:44:57 10° 239° (WSW) 2,920 ? 9.3°
Maximum altitude 15:51:46 47° 169° (SSE) 1,320 ? 8.3°
Drops below altitude 10° 15:57:55 10° 97° (E) 2,645 ? 7.4°
Sets 16:00:27 0° 92° (E) 3,506 ? 7.0°
